Погода Бельцы

Погода Бельцы : погода сейчас, прогноз погоды и архив. Всё, что Вы хотите узнать о погоде Бельцы!

Поиск расширенной информации на нашем сайте:

Другие новости

Новости СМИ2

Главная страница сайта

Новости сайта

03.07.2017

Напоминаем, что на нашем специализированном сайте Метеоцентр.Азия вы можете получить высокодетализированные автоматические прогнозы погоды по пунктам России, СНГ и мира в авиационном формате (включающие направление и скорость ветра, видимость, явления погоды, количество и форму облачности, нижнюю и верхнюю границу облачности).


Погода Бельцы - сегодня

Время (UTC), дата Ветер
(°,м/с) 
Видим.   Явления Облачность Т
(°С)
Тd
(°С)
f(%) Тe
(°С)
Pmin
(гПа)
dP
(гПа)
Po
(мм)
O2
(г/м3)
Тmin Tmax R s Состояние
почвы
00 18.11.17 тихо ()   10 км    10/8 600 м средняя 
[Sc|Ac As]
+3.9 +1.8 86 +4  1022.8  -0.9  752  299           
03 18.11.17 тихо ()   10 км    9/8 600 м средняя 
[Sc|Ac trans]
+3.9 +1.9 87 +4  1021.6  -1.2  751  298           
06 18.11.17 тихо ()   4000 м  дымка  10/8 500 м средняя 
[Sc|Ac As]
+3.9 +2.3 89 +4  1020.8  -0.7  751  298  +3.8         
09 18.11.17 тихо ()   4000 м  дымка  10/6 600 м средняя 
[Sc|Ac trans]
+4.8 +3 88 +5  1020.4  -0.4  751  297           
12 18.11.17 тихо ()   10 км  {дождь}  9/9 600 м 
[Sc]
+6.3 +3.3 81 +6  1018.3  -1.9  749  295           
15 18.11.17 тихо ()   10 км    10/10 300 м 
[Sc]
+6.5 +3.7 82 +7  1017  -1.3  748  294           
18 18.11.17 тихо ()   4000 м  дымка  10/8 600 м средняя 
[Sc|Ac trans]
+5.9 +4.1 88 +6  1016  -1  747  294    +0.6  0.0     
21 18.11.17 тихо ()   4000 м  дымка  10/10 300 м 
[Sc]
+5.8 +4.4 91 +6  1015  -1  747  294           
00 19.11.17 тихо ()   4000 м  дымка{дождь}  10/8 600 м средняя 
[Sc|Ac trans]
+5.4 +4.8 96 +5  1013.6  -1.4  746  294           
03 19.11.17 тихо ()   4000 м  слаб. дождь  10/10 300 м 
[Sc]
+5.4 +5 97 +5  1012.2  -1.4  745  293  +5.3         
06 19.11.17 тихо ()   2000 м  дымка{дождь}  10/10 300 м 
[Sc]
+5.3 +5 98 +5  1011.9  -0.3  744  293  +5.2       
09 19.11.17 тихо ()   1000 м  слаб. морось{дождь}  10/10 300 м 
[St]
+5.9 +5.6 98 +6  1012.1  0.3  745  293           
12 19.11.17 300 (СЗ) 4000 м  в посл. час дождь{морось}  9/9 600 м кучево-дожд. 
[Cb cap]
+5.2 +4.6 96 +6  1011.9  -0.3  744  294           
15 19.11.17 310 (СЗ) 10 км    8/8 600 м кучево-дожд. 
[Cb cap]
+4.4 +3.4 93 +5  1012.3  0.4  745  295           
18 19.11.17 300 (СЗ) 4000 м  дымка  4/0 средняя 
[Ac trans]
+2.2 +1.6 96 +3  1013.2  0.7  745  298    +0.6     
21 19.11.17 тихо ()   4000 м  дымка  4/4 600 м 
[Sc]
+0.3 +0.2 99 1013.9  0.5  746  300           
00 20.11.17 тихо ()   4000 м  дымка  6/0 средняя 
[Ac trans]
-0.3 -0.3 100 -0  1013.1  -0.8  745  301           
03 20.11.17 тихо ()   4000 м  дымка  ясно 
-2 -2 100 -2  1012.6  -0.6  745  302  -2.3         
06 20.11.17 тихо ()   0500 м  переохл. туман  ?/?  
-2.7 -2.7 100 -3  1012.9  0.2  745  303  -2.7         
09 20.11.17 тихо ()   2000 м  дымка{туман}  6/4 600 м верхняя 
[Sc|Cs]
+2.1 +2.1 100 +2  1012.7  0.2  745  297           
12 20.11.17 280 (З) 10 км  {туман}  8/8 600 м кучево-дожд. 
[Cb cap]
+5.3 +2.5 82 +6  1012.1  -0.4  745  294           
15 20.11.17 тихо ()   10 км    9/3 600 м кучево-дожд., средняя 
[Cb cap|Ac trans]
+2.5 +1.2 91 +3  1013  0.7  745  297           
18 20.11.17 тихо ()   4000 м  дымка  8/4 600 м средняя 
[Sc diur, vesp|Ac trans]
+0.1 -0.6 95 1013.8  0.6  746  300    +5.5       
21 20.11.17 270 (З) 4000 м  дымка  8/8 600 м 
[Sc]
+1.2 -0.3 90 +2  1014.4  0.7  746  299           
00 21.11.17 270 (З) 10 км    3/0 верхняя 
[Ci fib]
+0 -2.2 85 +1  1015.3  0.8  747  301           
Время (UTC), дата Ветер
(°,м/с) 
Видим.   Явления Облачность Т
(°С)
Тd
(°С)
f(%) Тe
(°С)
Pmin
(гПа)
dP
(гПа)
Po
(мм)
O2
(г/м3)
Тmin Tmax R s Состояние
почвы

Для получения пояснительной информации подведите курсор к названию столбца.

ПОГОДА Бельцы - архив

Всё, что Вы хотите узнать о погоде Бельцы - удобно и подробно!

Выберите нужную дату (начиная с 1 января 2015* года) и нажмите кнопку "Найти".
Будут отображены архивные сводки погоды по пункту Бельцы, начиная с указанной даты.


Отображать данные в формате CSV (для использования в таблицах Excel)


Внимание! Наш архив погоды предназначен исключительно для личного некоммерческого использования в познавательных целях. Если Вам необходимы официальные справки о состоянии погоды (для производственных, юридических, коммерческих и т.п. целей), обращайтесь в органы Росгидромета.

*Примечание: данная дата относится к архиву по метеостанциям СССР (Россия, СНГ, Балтия).
Архив по метеостанциям Зарубежной Европы и Азии (кроме Китая) хранится 10 дней, по другим регионам земного шара (Китай, Африка, Америка, Австралия, Океания) - 1 день.

Бельцы - район местоположения метеостанции


Название, широта, долгота, высота метеостанции:
Бельцы 47.8°ш. 27.9°д. 102 м над ур. моря [Молдавия]

Дополнительная информация

В oтличие oт бoльшинства пoгoдных сайтoв мы публикуем пoдрoбную метеoинфoрмацию в детальнoм прoфессиoнальнoм фoрмате.

Характеристики температуры и влажнoсти вoздуха измеряются на высoте 2 м в тени вдали oт зданий и деревьев.
Скoрoсть ветра измеряется на высoте 10 м (на урoвне рoста челoвека скoрoсть ветра ниже в 1.5-2 раза). Если метеoстанция нахoдится в гoрoде или в лесу, тo скoрoсть ветра занижена на 2-4 м/с пo сравнению с oткрытым местoм. Скoрoсть ветра над акватoриями крупных рек и oзёр, а также на вершинах хoлмoв на 2-5 м/с выше, чем в oбычных услoвиях.
Атмoсфернoе давление в разных тoчках местнoсти мoжет значительнo oтличаться oт давления на метеoстанции, в зависимoсти oт услoвий рельефа (при пoдъёме на 10 м давление пoнижается примернo на 1 мм рт.ст.).